Flag for Germany Weather past 2 weeks in Regensburg, Bavaria, Germany

Now
37 °F

Light rain. Overcast.


Feels Like: 32 °F
Forecast: 29 / 46 °F
Wind: 7 mph from Southwest

Location: Regensburg

Current Time: Apr 2, 2015 at 10:20:31 AM

Latest Report: Apr 2, 2015 at 10:00 AM


Visibility: 4 mi

Pressure: 29.85 "Hg

Humidity: 94%

Dew point: 36 °F

Location of RegensburgLocation

Historic Weather in Regensburg — Graph

°F

Regensburg temperature yesterday

Maximum temperature yesterday: 46 °F (at 3:00 PM)
Minimum temperature yesterday: 33 °F (at 10:00 PM)
Average temperature yesterday: 38 °F

Past Weeks' High & Low Weather Summary

 TemperatureHumidityPressure
High64 °F (Mar 25, 2:00 PM)100% (Mar 24, 7:00 AM)30.33 "Hg (Mar 24, 7:00 AM)
Low29 °F (Mar 21, 4:00 AM)26% (Mar 18, 4:00 PM)29.41 "Hg (Mar 31, 11:00 AM)
Average44 °F73%29.96 "Hg
* Reported Mar 18 8:00 AM — Apr 2 9:00 AM, Regensburg, Weather by CustomWeather, © 2015

Note: Actual official high and low records may vary slightly from our data, if they occured in-between our weather recording intervals... More about our weather records

Advertising

Regensburg weather history for previous 24 hours

 ConditionsComfort  
Time TempWeatherWind HumidityBarometerVisibility
9:00 AM
Thu, Apr 2
37 °FLight rain. Overcast.7 mph93%29.90 "Hg7 mi
8:00 AM36 °FLight freezing rain. Partly sunny.7 mph92%29.92 "Hg6 mi
7:00 AM36 °FPassing clouds.7 mph89%29.95 "Hg12 mi
6:00 AM36 °FPassing clouds.5 mph92%29.98 "Hg12 mi
5:00 AM35 °FPassing clouds.3 mph96%30.02 "Hg31 mi
4:00 AM34 °FFreezing rain. Low clouds.3 mph96%30.06 "Hg11 mi
3:00 AM35 °FPassing clouds.6 mph89%30.09 "Hg43 mi
2:00 AM35 °FOvercast.7 mph88%30.12 "Hg43 mi
1:00 AM33 °FPassing clouds.5 mph93%30.14 "Hg43 mi
12:00 AM34 °FOvercast.6 mph95%30.15 "HgN/A
11:00 PM
Wed, Apr 1
34 °FSnow. Passing clouds.7 mph94%30.16 "HgN/A
10:00 PM33 °FSnow. Low clouds.6 mph97%30.14 "Hg13 mi
9:00 PM36 °FOvercast.8 mph84%30.10 "Hg43 mi
8:00 PM35 °FLow clouds.6 mph94%30.09 "Hg28 mi
7:00 PM35 °FDrizzle. Partly sunny.10 mph90%30.08 "Hg22 mi
6:00 PM43 °FPassing clouds.9 mph63%30.03 "Hg31 mi
5:00 PM41 °FOvercast.7 mph78%30.04 "Hg17 mi
4:00 PM46 °FSunny.10 mph55%30.01 "Hg13 mi
3:00 PM46 °FPartly sunny.12 mph60%30.01 "Hg15 mi
2:00 PM44 °FScattered clouds.10 mph70%30.03 "Hg10 mi
1:00 PM42 °FPartly sunny.9 mph78%30.03 "Hg16 mi
12:00 PM35 °FLight rain. Low clouds.9 mph92%30.05 "Hg2 mi
11:00 AM41 °FPartly sunny.10 mph60%29.99 "Hg11 mi
10:00 AM41 °FPassing clouds.8 mph67%29.97 "Hg11 mi
Weather by CustomWeather, © 2015

See weather overviewHow to use our weather pages